Track ESSA 1 (OT-3) now! 10-day predictions ESSA 1 (OT-3) is classified as:
1 01982U 66008A 24325.78962449 .00000429 00000-0 12193-3 0 9999 2 01982 97.8937 27.0575 0081607 75.2880 285.7342 14.47909218 74954